QPF
0.01 0.01 0.02 0.03 0.03 0.04 0.05 0.06 0.07 0.06 0.09 0.12 0.15 0.14 0.11 0.08 0.06 0.05 0.05 0.05 0.05 0.06 0.06 0.07 0.07 0.06 0.06 0.06 0.06 0.07 0.08 0.07 0.07 0.08 0.07 0.06 0.06 0.09 0.08 0.05 0.05 0.07 0.09
0.01 0.01 0.01 0.02 0.02 0.03 0.04 0.04 0.05 0.07 0.07 0.09 0.10 0.10 0.09 0.07 0.05 0.04 0.05 0.05 0.05 0.06 0.06 0.06 0.07 0.07 0.07 0.07 0.07 0.07 0.08 0.07 0.07 0.08 0.08 0.08 0.07 0.06 0.07 0.08 0.07 0.06 0.09
0.02 0.03 0.02 0.02 0.02 0.02 0.03 0.03 0.05 0.07 0.08 0.09 0.07 0.05 0.05 0.04 0.04 0.04 0.05 0.04 0.04 0.05 0.05 0.05 0.06 0.07 0.07 0.07 0.06 0.07 0.08 0.07 0.08 0.09 0.11 0.11 0.10 0.08 0.07 0.09 0.09 0.09 0.10
0.03 0.05 0.04 0.03 0.04 0.04 0.04 0.06 0.06 0.07 0.08 0.09 0.07 0.06 0.04 0.04 0.04 0.05 0.05 0.05 0.04 0.04 0.06 0.07 0.07 0.07 0.07 0.08 0.05 0.06 0.07 0.07 0.07 0.10 0.11 0.11 0.11 0.10 0.08 0.07 0.07 0.08 0.10
0.04 0.04 0.04 0.04 0.06 0.08 0.08 0.08 0.08 0.09 0.10 0.10 0.07 0.05 0.03 0.04 0.04 0.05 0.05 0.05 0.04 0.04 0.04 0.05 0.07 0.07 0.07 0.06 0.06 0.07 0.07 0.07 0.07 0.08 0.10 0.10 0.11 0.11 0.10 0.07 0.07 0.07 0.07
0.05 0.07 0.07 0.07 0.08 0.09 0.08 0.06 0.06 0.07 0.06 0.04 0.03 0.03 0.03 0.03 0.04 0.05 0.04 0.04 0.04 0.05 0.04 0.03 0.04 0.05 0.05 0.05 0.05 0.05 0.05 0.06 0.07 0.07 0.08 0.09 0.09 0.09 0.10 0.08 0.08 0.07 0.07
0.03 0.05 0.07 0.10 0.10 0.09 0.09 0.08 0.07 0.05 0.04 0.04 0.03 0.04 0.04 0.04 0.05 0.06 0.05 0.06 0.05 0.05 0.04 0.04 0.04 0.04 0.04 0.04 0.05 0.05 0.05 0.06 0.06 0.06 0.07 0.08 0.09 0.09 0.09 0.09 0.09 0.09 0.07
0.03 0.04 0.07 0.10 0.12 0.11 0.09 0.07 0.06 0.06 0.05 0.05 0.05 0.05 0.05 0.05 0.05 0.05 0.05 0.05 0.05 0.04 0.03 0.03 0.04 0.04 0.04 0.03 0.04 0.05 0.06 0.05 0.06 0.05 0.05 0.06 0.06 0.07 0.08 0.08 0.07 0.08 0.07
0.03 0.03 0.04 0.06 0.06 0.07 0.05 0.06 0.07 0.07 0.05 0.05 0.04 0.05 0.05 0.04 0.04 0.04 0.05 0.06 0.06 0.05 0.04 0.04 0.04 0.04 0.03 0.03 0.04 0.05 0.05 0.06 0.06 0.06 0.05 0.05 0.06 0.06 0.06 0.07 0.07 0.07 0.08
0.02 0.02 0.03 0.04 0.05 0.05 0.06 0.07 0.07 0.06 0.05 0.04 0.04 0.04 0.04 0.05 0.04 0.04 0.05 0.05 0.05 0.05 0.05 0.04 0.04 0.03 0.02 0.03 0.04 0.04 0.04 0.06 0.06 0.06 0.05 0.05 0.06 0.06 0.06 0.06 0.06 0.07 0.08
0.01 0.02 0.02 0.04 0.05 0.04 0.04 0.06 0.05 0.05 0.04 0.04 0.04 0.05 0.05 0.05 0.04 0.04 0.04 0.04 0.05 0.05 0.05 0.05 0.05 0.03 0.02 0.02 0.04 0.04 0.04 0.04 0.05 0.05 0.06 0.06 0.06 0.07 0.07 0.07 0.07 0.08 0.10
0.01 0.02 0.02 0.02 0.02 0.03 0.04 0.05 0.05 0.05 0.04 0.04 0.04 0.05 0.06 0.08 0.06 0.06 0.05 0.05 0.05 0.05 0.05 0.05 0.03 0.02 0.02 0.02 0.03 0.03 0.03 0.04 0.04 0.05 0.06 0.08 0.07 0.07 0.08 0.07 0.08 0.09 0.09
0.01 0.01 0.01 0.01 0.02 0.02 0.03 0.04 0.06 0.07 0.07 0.07 0.08 0.08 0.09 0.09 0.08 0.06 0.06 0.05 0.04 0.04 0.04 0.03 0.02 0.02 0.02 0.03 0.03 0.03 0.04 0.04 0.05 0.05 0.07 0.08 0.08 0.08 0.08 0.07 0.08 0.09 0.08
0.01 0.02 0.02 0.02 0.01 0.02 0.02 0.02 0.03 0.04 0.05 0.07 0.08 0.09 0.08 0.09 0.11 0.07 0.07 0.06 0.05 0.04 0.03 0.02 0.02 0.02 0.02 0.02 0.03 0.03 0.04 0.03 0.04 0.05 0.07 0.08 0.06 0.07 0.07 0.06 0.07 0.07 0.08
0.01 0.02 0.02 0.02 0.02 0.02 0.01 0.01 0.02 0.02 0.03 0.05 0.06 0.08 0.08 0.07 0.11 0.11 0.10 0.08 0.06 0.04 0.03 0.02 0.01 0.03 0.02 0.01 0.01 0.02 0.02 0.02 0.03 0.04 0.05 0.04 0.04 0.04 0.07 0.06 0.06 0.06 0.07
0.01 0.02 0.03 0.04 0.03 0.02 0.01 0.02 0.02 0.02 0.03 0.03 0.04 0.06 0.08 0.07 0.09 0.14 0.13 0.09 0.07 0.05 0.03 0.01 0.01 0.02 0.01 0.01 0.01 0.01 0.02 0.02 0.04 0.05 0.05 0.03 0.03 0.02 0.04 0.05 0.04 0.04 0.05
0.01 0.02 0.03 0.03 0.02 0.02 0.02 0.02 0.02 0.02 0.03 0.04 0.03 0.04 0.06 0.08 0.09 0.11 0.11 0.09 0.08 0.06 0.04 0.02 0.02 0.02 0.01 0.00 0.00 0.01 0.02 0.03 0.03 0.04 0.04 0.03 0.01 0.02 0.03 0.04 0.02 0.03 0.03
0.01 0.01 0.03 0.03 0.04 0.03 0.02 0.02 0.01 0.01 0.02 0.04 0.04 0.04 0.05 0.05 0.06 0.08 0.10 0.10 0.10 0.08 0.07 0.04 0.02 0.02 0.01 0.01 0.00 0.00 0.01 0.02 0.02 0.02 0.03 0.03 0.02 0.01 0.02 0.03 0.04 0.03 0.03
0.01 0.01 0.03 0.04 0.05 0.03 0.02 0.02 0.01 0.01 0.01 0.02 0.04 0.06 0.04 0.04 0.05 0.06 0.07 0.08 0.07 0.07 0.06 0.04 0.03 0.03 0.02 0.01 0.00 0.00 0.01 0.02 0.02 0.02 0.01 0.02 0.01 0.01 0.00 0.02 0.04 0.05 0.04
0.01 0.01 0.02 0.04 0.05 0.03 0.02 0.01 0.01 0.02 0.01 0.02 0.03 0.05 0.05 0.02 0.02 0.04 0.05 0.05 0.05 0.05 0.04 0.03 0.02 0.02 0.02 0.01 0.00 0.00 0.02 0.03 0.03 0.02 0.01 0.01 0.01 0.00 0.01 0.03 0.04 0.04 0.04
0.01 0.01 0.02 0.03 0.05 0.04 0.02 0.01 0.02 0.02 0.01 0.01 0.01 0.03 0.05 0.03 0.02 0.02 0.03 0.03 0.03 0.03 0.03 0.03 0.03 0.02 0.01 0.00 0.00 0.00 0.01 0.02 0.03 0.02 0.02 0.01 0.00 0.00 0.00 0.01 0.01 0.02 0.01
0.01 0.02 0.02 0.02 0.04 0.05 0.02 0.02 0.02 0.02 0.01 0.01 0.01 0.02 0.04 0.05 0.04 0.03 0.03 0.03 0.03 0.03 0.03 0.03 0.03 0.02 0.01 0.00 0.00 0.00 0.00 0.01 0.03 0.02 0.02 0.01 0.00 0.00 0.00 0.00 0.00 0.01 0.01
0.02 0.02 0.02 0.02 0.02 0.04 0.03 0.02 0.02 0.01 0.02 0.02 0.02 0.02 0.03 0.05 0.05 0.04 0.04 0.03 0.04 0.03 0.03 0.03 0.02 0.02 0.01 0.01 0.01 0.00 0.00 0.01 0.02 0.01 0.01 0.00 0.00 0.00 0.00 0.00 0.01 0.02 0.02
0.02 0.02 0.02 0.02 0.02 0.02 0.02 0.02 0.01 0.01 0.02 0.02 0.02 0.03 0.03 0.04 0.05 0.05 0.04 0.02 0.02 0.02 0.02 0.02 0.01 0.01 0.01 0.01 0.01 0.01 0.01 0.01 0.02 0.02 0.01 0.00 0.00 0.00 0.01 0.01 0.01 0.01 0.02
0.02 0.01 0.02 0.03 0.02 0.02 0.02 0.01 0.01 0.01 0.01 0.02 0.03 0.03 0.04 0.04 0.04 0.04 0.04 0.02 0.01 0.00 0.01 0.01 0.01 0.01 0.01 0.00 0.00 0.00 0.00 0.01 0.01 0.01 0.02 0.02 0.01 0.01 0.01 0.01 0.02 0.02 0.03
0.02 0.02 0.03 0.03 0.02 0.03 0.03 0.02 0.02 0.02 0.02 0.02 0.02 0.02 0.03 0.03 0.03 0.04 0.03 0.02 0.01 0.00 0.00 0.00 0.00 0.00 0.00 0.00 0.00 0.00 0.00 0.00 0.01 0.01 0.03 0.03 0.02 0.02 0.02 0.03 0.03 0.03 0.04
MSLP
1015.09 1016.03 1016.76 1017.26 1017.56 1017.71 1017.78 1017.86 1017.97 1018.14 1018.34 1018.55 1018.72 1018.81 1018.78 1018.65 1018.44 1018.17 1017.91 1017.69 1017.52 1017.43 1017.39 1017.38 1017.36 1017.29 1017.14 1016.92 1016.60 1016.21 1015.77 1015.29 1014.78 1014.27 1013.75 1013.23 1012.71 1012.20 1011.73 1011.30 1010.93 1010.64 1010.45
1015.36 1016.48 1017.36 1017.94 1018.26 1018.39 1018.41 1018.41 1018.46 1018.58 1018.77 1018.98 1019.17 1019.26 1019.24 1019.09 1018.83 1018.50 1018.16 1017.86 1017.63 1017.49 1017.42 1017.40 1017.39 1017.34 1017.21 1017.00 1016.69 1016.31 1015.87 1015.39 1014.89 1014.39 1013.89 1013.39 1012.88 1012.37 1011.86 1011.38 1010.95 1010.58 1010.30
1015.73 1017.01 1018.01 1018.67 1019.02 1019.13 1019.10 1019.03 1019.00 1019.06 1019.21 1019.40 1019.57 1019.66 1019.63 1019.45 1019.15 1018.76 1018.35 1017.98 1017.68 1017.48 1017.38 1017.34 1017.32 1017.28 1017.17 1016.97 1016.69 1016.33 1015.92 1015.47 1015.02 1014.57 1014.11 1013.65 1013.18 1012.69 1012.18 1011.68 1011.20 1010.76 1010.40
1016.22 1017.61 1018.68 1019.40 1019.77 1019.86 1019.78 1019.64 1019.53 1019.51 1019.59 1019.73 1019.87 1019.95 1019.90 1019.70 1019.36 1018.94 1018.48 1018.05 1017.69 1017.44 1017.29 1017.23 1017.19 1017.14 1017.04 1016.87 1016.62 1016.30 1015.93 1015.54 1015.14 1014.75 1014.36 1013.96 1013.54 1013.09 1012.60 1012.09 1011.58 1011.10 1010.67
1016.79 1018.21 1019.32 1020.05 1020.42 1020.48 1020.35 1020.14 1019.96 1019.86 1019.87 1019.94 1020.04 1020.08 1020.01 1019.80 1019.46 1019.02 1018.53 1018.07 1017.68 1017.39 1017.20 1017.10 1017.04 1016.98 1016.88 1016.72 1016.49 1016.21 1015.88 1015.55 1015.21 1014.89 1014.56 1014.22 1013.86 1013.45 1012.99 1012.49 1011.98 1011.47 1011.00
1017.36 1018.73 1019.81 1020.53 1020.87 1020.90 1020.73 1020.46 1020.20 1020.03 1019.97 1019.98 1020.03 1020.04 1019.96 1019.76 1019.43 1019.00 1018.53 1018.06 1017.66 1017.34 1017.13 1016.99 1016.90 1016.81 1016.70 1016.54 1016.32 1016.06 1015.77 1015.47 1015.18 1014.90 1014.63 1014.34 1014.02 1013.65 1013.23 1012.76 1012.26 1011.76 1011.27
1017.81 1019.08 1020.08 1020.74 1021.04 1021.05 1020.84 1020.53 1020.23 1020.00 1019.88 1019.85 1019.85 1019.85 1019.77 1019.59 1019.29 1018.90 1018.47 1018.03 1017.64 1017.32 1017.08 1016.91 1016.79 1016.66 1016.52 1016.34 1016.11 1015.84 1015.56 1015.28 1015.00 1014.75 1014.50 1014.24 1013.95 1013.62 1013.23 1012.80 1012.34 1011.86 1011.40
1018.07 1019.18 1020.07 1020.65 1020.91 1020.90 1020.68 1020.36 1020.04 1019.79 1019.63 1019.57 1019.55 1019.53 1019.47 1019.32 1019.07 1018.74 1018.36 1017.97 1017.61 1017.30 1017.06 1016.86 1016.70 1016.53 1016.34 1016.12 1015.85 1015.56 1015.25 1014.95 1014.67 1014.40 1014.15 1013.89 1013.62 1013.31 1012.96 1012.58 1012.17 1011.75 1011.34
1018.08 1019.02 1019.78 1020.28 1020.50 1020.49 1020.29 1020.00 1019.70 1019.45 1019.29 1019.21 1019.18 1019.16 1019.11 1018.99 1018.80 1018.53 1018.22 1017.89 1017.57 1017.29 1017.04 1016.82 1016.62 1016.40 1016.16 1015.88 1015.57 1015.22 1014.87 1014.53 1014.20 1013.90 1013.62 1013.35 1013.07 1012.78 1012.46 1012.12 1011.78 1011.43 1011.11
1017.86 1018.63 1019.26 1019.69 1019.89 1019.90 1019.76 1019.53 1019.29 1019.08 1018.93 1018.85 1018.82 1018.79 1018.75 1018.66 1018.50 1018.29 1018.04 1017.77 1017.50 1017.24 1017.00 1016.77 1016.54 1016.27 1015.98 1015.64 1015.27 1014.86 1014.45 1014.05 1013.67 1013.32 1012.99 1012.68 1012.38 1012.09 1011.80 1011.52 1011.24 1010.98 1010.75
1017.46 1018.08 1018.60 1018.98 1019.20 1019.26 1019.20 1019.06 1018.89 1018.74 1018.63 1018.56 1018.52 1018.49 1018.43 1018.34 1018.21 1018.03 1017.82 1017.60 1017.37 1017.14 1016.91 1016.68 1016.42 1016.13 1015.79 1015.40 1014.98 1014.52 1014.05 1013.59 1013.15 1012.74 1012.36 1012.01 1011.68 1011.38 1011.11 1010.86 1010.64 1010.46 1010.32
1016.96 1017.46 1017.91 1018.27 1018.51 1018.65 1018.68 1018.65 1018.58 1018.50 1018.43 1018.37 1018.32 1018.26 1018.18 1018.07 1017.92 1017.75 1017.56 1017.37 1017.17 1016.96 1016.76 1016.53 1016.26 1015.95 1015.59 1015.18 1014.72 1014.22 1013.71 1013.20 1012.71 1012.25 1011.82 1011.42 1011.07 1010.75 1010.47 1010.25 1010.07 1009.95 1009.89
1016.44 1016.87 1017.28 1017.63 1017.91 1018.12 1018.26 1018.34 1018.37 1018.36 1018.33 1018.28 1018.21 1018.11 1017.98 1017.82 1017.65 1017.46 1017.27 1017.08 1016.90 1016.71 1016.52 1016.31 1016.06 1015.75 1015.39 1014.97 1014.49 1013.99 1013.45 1012.92 1012.40 1011.90 1011.43 1011.00 1010.61 1010.26 1009.97 1009.74 1009.58 1009.49 1009.47
1015.95 1016.34 1016.72 1017.09 1017.41 1017.70 1017.93 1018.10 1018.22 1018.29 1018.29 1018.25 1018.14 1018.00 1017.81 1017.60 1017.37 1017.15 1016.94 1016.74 1016.57 1016.40 1016.22 1016.03 1015.80 1015.51 1015.17 1014.76 1014.31 1013.81 1013.28 1012.75 1012.22 1011.70 1011.21 1010.75 1010.32 1009.94 1009.62 1009.36 1009.18 1009.08 1009.07
1015.52 1015.89 1016.26 1016.63 1016.99 1017.33 1017.64 1017.90 1018.09 1018.21 1018.25 1018.21 1018.08 1017.89 1017.65 1017.38 1017.10 1016.83 1016.59 1016.38 1016.19 1016.03 1015.87 1015.70 1015.49 1015.23 1014.92 1014.55 1014.12 1013.66 1013.16 1012.65 1012.13 1011.62 1011.12 1010.64 1010.18 1009.77 1009.40 1009.10 1008.88 1008.74 1008.70
1015.12 1015.48 1015.85 1016.23 1016.61 1016.99 1017.35 1017.67 1017.92 1018.09 1018.15 1018.12 1017.98 1017.76 1017.48 1017.16 1016.83 1016.52 1016.25 1016.01 1015.81 1015.65 1015.49 1015.33 1015.14 1014.91 1014.63 1014.30 1013.93 1013.50 1013.05 1012.58 1012.09 1011.60 1011.10 1010.62 1010.15 1009.70 1009.29 1008.93 1008.65 1008.45 1008.35
1014.75 1015.11 1015.47 1015.85 1016.24 1016.64 1017.03 1017.38 1017.68 1017.88 1017.97 1017.95 1017.82 1017.59 1017.29 1016.94 1016.59 1016.24 1015.93 1015.67 1015.45 1015.27 1015.11 1014.95 1014.77 1014.56 1014.32 1014.02 1013.69 1013.32 1012.91 1012.49 1012.04 1011.58 1011.11 1010.63 1010.15 1009.68 1009.24 1008.83 1008.49 1008.23 1008.06
1014.39 1014.76 1015.12 1015.48 1015.86 1016.26 1016.66 1017.04 1017.36 1017.59 1017.72 1017.73 1017.61 1017.40 1017.10 1016.75 1016.37 1016.01 1015.68 1015.39 1015.14 1014.93 1014.75 1014.58 1014.40 1014.20 1013.97 1013.70 1013.41 1013.08 1012.73 1012.35 1011.95 1011.53 1011.10 1010.64 1010.17 1009.70 1009.24 1008.80 1008.41 1008.10 1007.87
1014.05 1014.44 1014.79 1015.15 1015.52 1015.90 1016.30 1016.68 1017.01 1017.27 1017.43 1017.47 1017.39 1017.20 1016.92 1016.58 1016.21 1015.84 1015.48 1015.17 1014.89 1014.65 1014.44 1014.25 1014.05 1013.84 1013.62 1013.37 1013.10 1012.81 1012.50 1012.17 1011.82 1011.44 1011.05 1010.62 1010.18 1009.73 1009.27 1008.83 1008.43 1008.09 1007.82
1013.77 1014.17 1014.54 1014.88 1015.24 1015.61 1015.99 1016.36 1016.70 1016.97 1017.15 1017.22 1017.17 1017.02 1016.77 1016.45 1016.09 1015.71 1015.35 1015.01 1014.70 1014.43 1014.18 1013.96 1013.74 1013.52 1013.29 1013.05 1012.80 1012.54 1012.26 1011.97 1011.66 1011.32 1010.97 1010.59 1010.19 1009.77 1009.34 1008.93 1008.54 1008.20 1007.93
1013.56 1014.00 1014.37 1014.71 1015.05 1015.40 1015.76 1016.12 1016.45 1016.72 1016.92 1017.01 1016.99 1016.87 1016.65 1016.35 1016.00 1015.62 1015.25 1014.89 1014.55 1014.25 1013.97 1013.71 1013.48 1013.24 1013.01 1012.78 1012.54 1012.29 1012.04 1011.77 1011.49 1011.19 1010.88 1010.54 1010.18 1009.81 1009.43 1009.06 1008.72 1008.42 1008.18
1013.44 1013.91 1014.30 1014.64 1014.98 1015.31 1015.64 1015.98 1016.29 1016.55 1016.74 1016.84 1016.84 1016.73 1016.53 1016.25 1015.90 1015.53 1015.15 1014.77 1014.41 1014.09 1013.79 1013.52 1013.26 1013.03 1012.79 1012.57 1012.34 1012.10 1011.86 1011.61 1011.34 1011.07 1010.77 1010.46 1010.15 1009.82 1009.50 1009.20 1008.92 1008.68 1008.49
1013.39 1013.88 1014.29 1014.64 1014.96 1015.28 1015.59 1015.90 1016.18 1016.42 1016.60 1016.69 1016.69 1016.58 1016.39 1016.11 1015.77 1015.40 1015.01 1014.63 1014.26 1013.93 1013.62 1013.35 1013.10 1012.86 1012.64 1012.41 1012.19 1011.96 1011.72 1011.47 1011.20 1010.93 1010.64 1010.35 1010.06 1009.78 1009.51 1009.27 1009.06 1008.89 1008.77
1013.35 1013.86 1014.28 1014.63 1014.95 1015.25 1015.54 1015.82 1016.07 1016.29 1016.44 1016.51 1016.49 1016.38 1016.18 1015.90 1015.57 1015.20 1014.81 1014.43 1014.07 1013.75 1013.45 1013.19 1012.95 1012.73 1012.52 1012.30 1012.08 1011.85 1011.59 1011.33 1011.05 1010.76 1010.46 1010.17 1009.89 1009.63 1009.40 1009.21 1009.06 1008.96 1008.90
1013.27 1013.77 1014.19 1014.54 1014.85 1015.14 1015.41 1015.66 1015.89 1016.08 1016.20 1016.25 1016.22 1016.09 1015.89 1015.61 1015.28 1014.91 1014.54 1014.18 1013.84 1013.53 1013.26 1013.02 1012.80 1012.60 1012.40 1012.19 1011.96 1011.72 1011.45 1011.15 1010.84 1010.52 1010.20 1009.89 1009.60 1009.35 1009.14 1008.99 1008.88 1008.83 1008.83
1013.06 1013.55 1013.96 1014.30 1014.61 1014.88 1015.14 1015.38 1015.59 1015.75 1015.85 1015.88 1015.83 1015.70 1015.50 1015.22 1014.90 1014.55 1014.20 1013.86 1013.55 1013.27 1013.03 1012.82 1012.62 1012.44 1012.24 1012.03 1011.79 1011.52 1011.22 1010.89 1010.53 1010.17 1009.82 1009.48 1009.18 1008.93 1008.73 1008.59 1008.51 1008.49 1008.51
Thickness
5759 5756 5751 5746 5740 5735 5729 5725 5720 5716 5713 5709 5705 5700 5697 5696 5693 5690 5688 5685 5683 5680 5679 5677 5675 5674 5672 5670 5669 5667 5666 5666 5667 5665 5665 5668 5671 5671 5671 5670 5670 5669 5671
5754 5749 5745 5740 5734 5728 5723 5719 5715 5711 5707 5703 5700 5696 5693 5690 5687 5684 5681 5679 5676 5673 5672 5669 5667 5666 5664 5663 5662 5659 5657 5657 5659 5655 5652 5653 5656 5660 5663 5662 5662 5663 5663
5747 5742 5738 5734 5729 5723 5718 5714 5709 5704 5701 5697 5694 5691 5687 5683 5679 5677 5674 5672 5669 5667 5664 5661 5659 5658 5656 5655 5654 5652 5650 5648 5650 5650 5645 5642 5642 5645 5650 5652 5654 5654 5654
5746 5739 5732 5727 5723 5719 5714 5709 5703 5698 5694 5691 5687 5682 5678 5674 5672 5670 5668 5665 5663 5660 5657 5654 5651 5650 5648 5647 5646 5645 5643 5642 5640 5642 5642 5641 5639 5635 5636 5640 5643 5644 5645
5743 5736 5729 5723 5719 5714 5709 5703 5698 5692 5689 5685 5682 5677 5673 5669 5666 5663 5660 5657 5656 5653 5650 5647 5644 5642 5640 5639 5638 5637 5636 5635 5634 5633 5633 5633 5633 5633 5629 5628 5631 5633 5635
5741 5733 5726 5719 5713 5708 5702 5697 5691 5686 5683 5679 5675 5671 5666 5662 5658 5655 5652 5650 5648 5646 5643 5640 5637 5635 5633 5631 5630 5630 5629 5628 5628 5627 5626 5625 5625 5624 5624 5622 5622 5623 5626
5735 5725 5718 5712 5706 5701 5696 5691 5685 5680 5676 5672 5669 5665 5660 5656 5652 5649 5646 5643 5641 5639 5636 5633 5630 5628 5627 5626 5625 5624 5623 5623 5621 5621 5621 5621 5621 5621 5620 5617 5616 5617 5619
5731 5722 5714 5706 5700 5694 5690 5685 5679 5674 5670 5666 5663 5659 5655 5651 5648 5645 5641 5639 5636 5633 5631 5628 5625 5623 5622 5621 5620 5619 5618 5618 5616 5617 5617 5617 5617 5617 5615 5614 5612 5610 5612
5725 5717 5710 5702 5695 5688 5684 5680 5674 5669 5665 5661 5658 5654 5650 5646 5642 5639 5637 5634 5631 5629 5626 5623 5620 5618 5617 5616 5615 5614 5613 5613 5612 5612 5613 5613 5613 5613 5612 5611 5610 5607 5605
5718 5712 5704 5696 5690 5684 5679 5674 5669 5664 5660 5657 5653 5649 5645 5641 5637 5635 5631 5628 5625 5623 5620 5618 5616 5614 5612 5611 5610 5610 5610 5609 5609 5608 5608 5608 5608 5609 5608 5607 5607 5606 5604
5711 5704 5697 5690 5684 5678 5672 5666 5662 5658 5654 5651 5647 5643 5639 5635 5632 5629 5626 5623 5620 5618 5615 5613 5611 5609 5608 5607 5606 5606 5605 5605 5604 5605 5605 5604 5604 5604 5604 5604 5603 5603 5603
5705 5697 5690 5683 5676 5670 5665 5660 5656 5652 5649 5645 5641 5637 5633 5629 5626 5623 5621 5618 5615 5613 5611 5609 5607 5606 5604 5603 5602 5602 5601 5600 5600 5600 5600 5600 5600 5599 5599 5599 5598 5599 5599
5698 5690 5683 5676 5670 5665 5660 5655 5651 5647 5643 5640 5635 5631 5627 5624 5621 5618 5616 5614 5611 5609 5607 5606 5603 5602 5601 5599 5598 5597 5597 5596 5596 5596 5596 5596 5596 5595 5595 5595 5595 5596 5597
5690 5683 5676 5670 5664 5659 5654 5650 5645 5642 5639 5635 5631 5626 5623 5620 5618 5615 5612 5610 5607 5605 5604 5602 5600 5599 5598 5596 5595 5594 5592 5592 5592 5593 5593 5593 5593 5592 5592 5592 5592 5592 5592
5685 5678 5671 5665 5659 5654 5649 5645 5641 5637 5634 5631 5627 5623 5620 5617 5615 5612 5609 5606 5604 5603 5602 5599 5598 5596 5594 5592 5590 5589 5589 5588 5589 5590 5590 5590 5590 5590 5589 5590 5589 5589 5588
5681 5675 5668 5661 5656 5651 5646 5642 5638 5635 5632 5628 5625 5622 5618 5614 5611 5609 5606 5603 5601 5600 5598 5596 5595 5593 5592 5588 5585 5584 5584 5585 5586 5586 5587 5588 5589 5588 5587 5587 5587 5586 5586
5679 5672 5666 5660 5654 5649 5645 5640 5637 5634 5630 5627 5624 5621 5617 5613 5609 5607 5604 5600 5598 5596 5594 5593 5592 5590 5588 5586 5584 5582 5581 5582 5583 5584 5585 5587 5588 5587 5587 5587 5587 5587 5586
5676 5670 5665 5658 5653 5648 5643 5639 5636 5632 5629 5625 5622 5619 5616 5612 5609 5606 5602 5599 5596 5594 5592 5591 5590 5589 5587 5584 5582 5581 5581 5582 5583 5584 5585 5585 5585 5585 5584 5585 5586 5587 5587
5675 5669 5663 5657 5651 5646 5641 5637 5633 5630 5627 5623 5621 5618 5615 5612 5608 5604 5601 5598 5596 5593 5592 5591 5590 5589 5586 5584 5582 5579 5580 5581 5583 5584 5585 5585 5584 5583 5583 5584 5584 5585 5586
5672 5666 5661 5655 5648 5644 5640 5635 5630 5627 5624 5623 5620 5618 5615 5611 5608 5604 5601 5598 5596 5594 5593 5592 5591 5589 5587 5584 5582 5580 5580 5581 5582 5583 5584 5584 5583 5582 5581 5581 5582 5583 5585
5669 5664 5658 5652 5646 5643 5638 5633 5629 5626 5624 5622 5620 5617 5614 5611 5608 5605 5602 5599 5597 5595 5593 5592 5591 5590 5588 5585 5583 5580 5580 5580 5581 5582 5583 5583 5582 5581 5581 5580 5581 5582 5583
5666 5661 5655 5650 5645 5641 5636 5631 5628 5626 5624 5621 5618 5615 5613 5611 5609 5605 5602 5600 5597 5595 5594 5593 5592 5591 5589 5587 5585 5582 5580 5579 5579 5580 5582 5582 5581 5581 5581 5581 5582 5583 5583
5664 5659 5653 5648 5643 5640 5636 5630 5627 5625 5622 5619 5616 5614 5612 5609 5607 5605 5602 5600 5598 5597 5596 5596 5594 5593 5592 5590 5587 5584 5583 5581 5580 5582 5582 5582 5582 5582 5583 5584 5584 5584 5584
5662 5657 5652 5646 5641 5639 5635 5631 5628 5625 5622 5618 5616 5614 5611 5609 5607 5606 5604 5602 5600 5599 5598 5596 5595 5594 5594 5591 5589 5587 5586 5584 5583 5583 5583 5583 5584 5585 5585 5587 5587 5587 5588
5661 5656 5651 5646 5641 5638 5635 5632 5629 5626 5622 5619 5616 5614 5612 5611 5608 5606 5604 5603 5602 5601 5598 5597 5596 5594 5593 5590 5587 5586 5586 5585 5583 5580 5583 5585 5587 5588 5590 5591 5593 5593 5592
5661 5655 5651 5647 5643 5640 5636 5633 5630 5627 5622 5619 5617 5615 5614 5613 5611 5609 5607 5605 5604 5603 5601 5599 5596 5596 5594 5591 5589 5587 5585 5584 5581 5580 5584 5586 5589 5590 5592 5593 5595 5595 5595